Nyk Orpheus — 7JDN — position and weather

sailwx.info

Track history (hours):
 
Tides and Currents Weather Stations Pressure Air Temp Water Temp Dewpoint Dewpoint Depression Visibility Wind Speed Wind Dir Waves Ship Positions

Nyk Orpheus

Last reported at 2014-Nov-22 19:04 UTC. Time now 2014-Nov-22 21:30 UTC.
Position N 22°46' E 116°48'.

Length 336 m; draft 12.6 m.

Type: Other ship. MMSI: 432657000.

Date/timePositionNaut miles runAvg speedWind from/ knotsBaromVisibWave heightAir tempDewpointWater temp
2014-Nov-22 19:04N 22°46' E 116°48'713.2
2014-Nov-22 18:32N 22°50' E 116°55'1413.5
2014-Nov-22 17:31N 22°57' E 117°08'7712.9
2014-Nov-22 11:30N 23°41' E 118°17'1211.5
2014-Nov-22 10:25N 23°47' E 118°29'1011.0
2014-Nov-22 09:32N 23°54' E 118°37'4112.7
2014-Nov-22 06:17N 24°21' E 119°11'1216.2
2014-Nov-22 05:33N 24°28' E 119°21'33616.8
2014-Nov-21 09:33N 29°20' E 122°29'1717.1
2014-Nov-21 08:33N 29°36' E 122°33'1514.7
2014-Nov-21 07:33N 29°45' E 122°19'9 9.3
2014-Nov-21 06:33N 29°50' E 122°10'9 9.0
2014-Nov-21 05:33N 29°46' E 122°00'0 0.1
2014-Nov-21 04:19N 29°46' E 122°00'0 0.0
2014-Nov-21 01:31N 29°46' E 122°00'0 0.0
2014-Nov-20 23:31N 29°46' E 122°00'0 0.0
2014-Nov-20 22:19N 29°46' E 122°00'0 0.0
2014-Nov-20 19:25N 29°46' E 122°00'0 0.0
2014-Nov-20 16:31N 29°46' E 122°00'0 0.0
2014-Nov-20 15:13N 29°46' E 122°00'0 0.0
2014-Nov-20 13:13N 29°46' E 122°00'0 0.1
2014-Nov-20 12:33N 29°46' E 122°00'8 7.8
2014-Nov-20 11:33N 29°50' E 122°08'9 9.4
2014-Nov-20 10:33N 29°46' E 122°18'1110.9
2014-Nov-20 09:33N 29°43' E 122°30'4113.7
2014-Nov-20 06:33N 30°20' E 122°53'2420.6
2014-Nov-20 05:24N 30°31' E 122°28'1315.0
2014-Nov-20 04:33N 30°33' E 122°14'1111.1
2014-Nov-20 03:34N 30°38' E 122°03'0 0.2
2014-Nov-20 02:32N 30°38' E 122°03'0 0.0
2014-Nov-20 01:32N 30°38' E 122°03'0 0.0
2014-Nov-20 00:32N 30°38' E 122°03'0 0.0
2014-Nov-19 23:32N 30°38' E 122°03'0 0.0
2014-Nov-19 22:32N 30°38' E 122°03'0 0.0
2014-Nov-19 21:32N 30°38' E 122°03'0 0.0
2014-Nov-19 20:32N 30°38' E 122°03'0 0.0
2014-Nov-19 19:32N 30°38' E 122°03'0 0.0
2014-Nov-19 18:32N 30°38' E 122°03'0 0.0
2014-Nov-19 17:32N 30°38' E 122°03'0 0.0
2014-Nov-19 16:32N 30°38' E 122°03'0 0.0
2014-Nov-19 15:32N 30°38' E 122°03'0 0.0
2014-Nov-19 14:32N 30°38' E 122°03'0 0.0
2014-Nov-19 13:32N 30°38' E 122°03'0 0.0
2014-Nov-19 12:32N 30°38' E 122°03'0 0.0
2014-Nov-19 11:32N 30°38' E 122°03'0 0.0
2014-Nov-19 10:32N 30°38' E 122°03'0 0.0
2014-Nov-19 09:32N 30°38' E 122°03'0 0.0
2014-Nov-19 08:29N 30°38' E 122°03'0 0.0
2014-Nov-19 07:32N 30°38' E 122°03'0 0.0
2014-Nov-19 06:32N 30°38' E 122°03'0 0.0
2014-Nov-19 05:29N 30°38' E 122°03'0 0.0
2014-Nov-19 04:23N 30°38' E 122°03'0 0.0
2014-Nov-19 03:26N 30°38' E 122°03'1 0.9
2014-Nov-19 02:33N 30°37' E 122°03'7 7.1
2014-Nov-19 01:33N 30°34' E 122°10'9 8.7
2014-Nov-19 00:33N 30°33' E 122°21'5 4.6
2014-Nov-18 23:33N 30°34' E 122°26'1110.6
2014-Nov-18 22:33N 30°34' E 122°38'1111.0
2014-Nov-18 21:33N 30°34' E 122°51'  
2014-Nov-14 02:09N 24°27' E 119°22'5915.7
2014-Nov-13 22:24N 23°49' E 118°32'1315.7
2014-Nov-13 21:33N 23°41' E 118°21'9715.9
2014-Nov-13 15:29N 22°49' E 116°52'15614.3
2014-Nov-13 04:33N 22°19' E 114°06'1 0.7
2014-Nov-13 03:28N 22°20' E 114°07'0 0.0
2014-Nov-13 02:16N 22°20' E 114°07'0 0.0
2014-Nov-13 01:10N 22°20' E 114°07'0 0.0
2014-Nov-13 00:16N 22°20' E 114°07'0 0.0
2014-Nov-12 23:28N 22°20' E 114°07'0 0.0
2014-Nov-12 22:22N 22°20' E 114°07'0 0.0
2014-Nov-12 21:28N 22°20' E 114°07'0 0.0
2014-Nov-12 20:10N 22°20' E 114°07'0 0.0
2014-Nov-12 19:28N 22°20' E 114°07'  
Track history (hours):
 
Tides and Currents Weather Stations Pressure Air Temp Water Temp Dewpoint Dewpoint Depression Visibility Wind Speed Wind Dir Waves Ship Positions

Nyk Orpheus

Last reported at 2014-Nov-22 19:04 UTC. Time now 2014-Nov-22 21:30 UTC.
Position N 22°46' E 116°48'.

Length 336 m; draft 12.6 m.

Type: Other ship. MMSI: 432657000.

Date/timePositionNaut miles runAvg speedWind from/ knotsBaromVisibWave heightAir tempDewpointWater temp
2014-Nov-22 19:04N 22°46' E 116°48'713.2
2014-Nov-22 18:32N 22°50' E 116°55'1413.5
2014-Nov-22 17:31N 22°57' E 117°08'7712.9
2014-Nov-22 11:30N 23°41' E 118°17'1211.5
2014-Nov-22 10:25N 23°47' E 118°29'1011.0
2014-Nov-22 09:32N 23°54' E 118°37'4112.7
2014-Nov-22 06:17N 24°21' E 119°11'1216.2
2014-Nov-22 05:33N 24°28' E 119°21'33616.8
2014-Nov-21 09:33N 29°20' E 122°29'1717.1
2014-Nov-21 08:33N 29°36' E 122°33'1514.7
2014-Nov-21 07:33N 29°45' E 122°19'9 9.3
2014-Nov-21 06:33N 29°50' E 122°10'9 9.0
2014-Nov-21 05:33N 29°46' E 122°00'0 0.1
2014-Nov-21 04:19N 29°46' E 122°00'0 0.0
2014-Nov-21 01:31N 29°46' E 122°00'0 0.0
2014-Nov-20 23:31N 29°46' E 122°00'0 0.0
2014-Nov-20 22:19N 29°46' E 122°00'0 0.0
2014-Nov-20 19:25N 29°46' E 122°00'0 0.0
2014-Nov-20 16:31N 29°46' E 122°00'0 0.0
2014-Nov-20 15:13N 29°46' E 122°00'0 0.0
2014-Nov-20 13:13N 29°46' E 122°00'0 0.1
2014-Nov-20 12:33N 29°46' E 122°00'8 7.8
2014-Nov-20 11:33N 29°50' E 122°08'9 9.4
2014-Nov-20 10:33N 29°46' E 122°18'1110.9
2014-Nov-20 09:33N 29°43' E 122°30'4113.7
2014-Nov-20 06:33N 30°20' E 122°53'2420.6
2014-Nov-20 05:24N 30°31' E 122°28'1315.0
2014-Nov-20 04:33N 30°33' E 122°14'1111.1
2014-Nov-20 03:34N 30°38' E 122°03'0 0.2
2014-Nov-20 02:32N 30°38' E 122°03'0 0.0
2014-Nov-20 01:32N 30°38' E 122°03'0 0.0
2014-Nov-20 00:32N 30°38' E 122°03'0 0.0
2014-Nov-19 23:32N 30°38' E 122°03'0 0.0
2014-Nov-19 22:32N 30°38' E 122°03'0 0.0
2014-Nov-19 21:32N 30°38' E 122°03'0 0.0
2014-Nov-19 20:32N 30°38' E 122°03'0 0.0
2014-Nov-19 19:32N 30°38' E 122°03'0 0.0
2014-Nov-19 18:32N 30°38' E 122°03'0 0.0
2014-Nov-19 17:32N 30°38' E 122°03'0 0.0
2014-Nov-19 16:32N 30°38' E 122°03'0 0.0
2014-Nov-19 15:32N 30°38' E 122°03'0 0.0
2014-Nov-19 14:32N 30°38' E 122°03'0 0.0
2014-Nov-19 13:32N 30°38' E 122°03'0 0.0
2014-Nov-19 12:32N 30°38' E 122°03'0 0.0
2014-Nov-19 11:32N 30°38' E 122°03'0 0.0
2014-Nov-19 10:32N 30°38' E 122°03'0 0.0
2014-Nov-19 09:32N 30°38' E 122°03'0 0.0
2014-Nov-19 08:29N 30°38' E 122°03'0 0.0
2014-Nov-19 07:32N 30°38' E 122°03'0 0.0
2014-Nov-19 06:32N 30°38' E 122°03'0 0.0
2014-Nov-19 05:29N 30°38' E 122°03'0 0.0
2014-Nov-19 04:23N 30°38' E 122°03'0 0.0
2014-Nov-19 03:26N 30°38' E 122°03'1 0.9
2014-Nov-19 02:33N 30°37' E 122°03'7 7.1
2014-Nov-19 01:33N 30°34' E 122°10'9 8.7
2014-Nov-19 00:33N 30°33' E 122°21'5 4.6
2014-Nov-18 23:33N 30°34' E 122°26'1110.6
2014-Nov-18 22:33N 30°34' E 122°38'1111.0
2014-Nov-18 21:33N 30°34' E 122°51'  
2014-Nov-14 02:09N 24°27' E 119°22'5915.7
2014-Nov-13 22:24N 23°49' E 118°32'1315.7
2014-Nov-13 21:33N 23°41' E 118°21'9715.9
2014-Nov-13 15:29N 22°49' E 116°52'15614.3
2014-Nov-13 04:33N 22°19' E 114°06'1 0.7
2014-Nov-13 03:28N 22°20' E 114°07'0 0.0
2014-Nov-13 02:16N 22°20' E 114°07'0 0.0
2014-Nov-13 01:10N 22°20' E 114°07'0 0.0
2014-Nov-13 00:16N 22°20' E 114°07'0 0.0
2014-Nov-12 23:28N 22°20' E 114°07'0 0.0
2014-Nov-12 22:22N 22°20' E 114°07'0 0.0
2014-Nov-12 21:28N 22°20' E 114°07'0 0.0
2014-Nov-12 20:10N 22°20' E 114°07'0 0.0
2014-Nov-12 19:28N 22°20' E 114°07'  

Dump ship's entire track history